Theta_e
343 344 345 346 347 347 348 349 352 351 353 355 356 357 356 357 358 360 361 363 364 365 367 368 368 369 368 368 369 370 369 369 369 367 365 365 363 362 361 361 361 360 357 356 358 355 357 356 354 353 351 350 350 348 349 350 350 349 349 349 349 348 347
340 341 343 345 346 348 350 351 352 352 353 355 356 358 357 358 359 359 360 363 365 365 367 368 368 368 368 369 369 370 369 369 369 368 367 365 365 364 364 363 362 361 361 359 357 358 357 354 353 351 349 350 348 349 348 350 350 349 347 348 346 347 346
340 341 343 345 346 347 350 351 352 352 354 354 355 356 356 359 360 360 361 362 364 366 366 368 369 368 369 369 369 370 370 370 369 368 367 363 365 363 365 364 362 360 360 360 357 355 355 353 353 351 349 349 347 348 349 349 349 348 348 348 347 346 345
338 340 342 345 348 350 351 351 352 352 353 354 355 356 358 360 362 362 362 363 364 364 364 367 368 367 368 369 369 369 370 370 370 368 367 366 366 366 364 363 362 360 359 358 355 353 353 352 351 349 349 349 348 348 347 347 347 347 347 347 346 347 346
339 341 342 343 345 349 350 351 352 353 352 353 356 358 359 359 361 361 362 363 363 364 365 366 367 368 368 369 368 369 370 370 370 369 368 366 367 366 363 361 360 358 357 356 355 353 353 351 350 349 348 349 348 348 347 346 346 347 346 346 346 346 344
338 340 341 342 343 347 350 350 351 352 352 352 355 356 357 357 358 358 360 362 363 364 366 367 367 368 368 368 368 368 370 371 371 370 368 367 366 364 362 361 359 357 355 354 353 353 353 352 349 348 347 345 344 343 345 345 345 344 345 347 345 344 342
339 341 341 342 344 346 348 350 351 352 353 353 355 356 356 356 357 357 358 360 361 362 364 364 366 366 367 368 368 369 370 369 370 369 367 366 365 364 362 361 359 356 356 356 353 352 351 349 347 347 346 345 345 343 344 345 345 345 345 345 345 345 344
341 342 344 344 344 345 346 350 351 351 353 354 353 353 354 355 356 357 357 358 359 359 360 360 363 366 368 369 368 368 369 369 369 368 367 365 364 362 361 360 358 357 356 355 354 352 348 348 346 347 346 345 345 344 344 346 346 343 344 344 343 342 343
341 345 344 343 344 343 345 349 351 351 353 354 354 355 355 356 355 356 357 358 359 358 359 359 361 365 369 368 368 368 369 369 368 367 366 364 362 358 357 358 358 357 355 354 352 352 349 348 346 350 351 345 344 346 346 347 345 344 343 343 342 341 340
342 345 346 344 344 342 345 348 352 353 353 354 355 356 356 355 357 357 357 357 358 358 359 360 360 362 367 368 367 369 369 368 367 365 363 361 359 356 356 356 357 356 355 353 352 349 350 349 349 351 347 343 345 349 346 345 345 343 343 344 342 342 342
340 345 347 344 344 345 347 348 350 353 354 356 356 355 358 357 356 356 357 357 356 358 359 361 362 361 365 367 366 366 367 367 365 363 362 360 356 355 355 356 355 354 354 351 349 348 347 349 351 348 346 343 346 347 346 345 343 342 343 344 343 343 342
344 345 347 346 345 345 346 350 353 355 357 358 357 357 359 359 357 356 358 358 358 358 360 360 362 361 363 365 365 366 367 367 365 362 362 360 357 355 355 355 355 354 352 351 348 349 348 347 346 346 345 344 343 345 346 345 343 343 343 342 343 344 343
344 345 347 344 347 347 351 354 355 357 358 358 357 359 359 358 358 358 360 360 359 359 361 362 363 363 362 364 364 365 367 366 365 363 361 361 359 357 355 353 352 351 349 349 347 344 342 344 344 344 344 344 345 344 344 344 343 344 345 344 345 344 343
346 344 346 347 348 349 351 354 356 358 359 359 358 359 360 359 359 360 361 360 360 360 359 361 363 364 363 364 365 366 367 367 366 364 363 362 360 358 356 355 353 351 351 348 345 341 340 343 344 344 344 344 343 343 345 345 344 344 345 346 345 344 344
341 341 345 344 348 350 352 353 356 358 358 358 358 359 360 360 360 362 363 363 364 361 361 364 364 365 364 365 365 366 369 368 367 365 362 360 359 357 356 354 354 354 351 347 344 340 341 343 345 345 343 343 342 343 344 342 342 342 342 343 344 344 342
339 339 342 344 348 349 352 354 357 358 358 358 358 359 358 359 361 360 361 362 362 363 363 364 365 366 366 365 366 367 369 367 366 362 360 360 357 357 355 354 353 350 349 347 343 345 346 347 344 341 340 340 341 342 342 341 341 337 332 337 344 344 344
339 338 340 345 349 349 351 353 356 357 357 357 358 359 359 360 362 362 360 362 363 364 364 364 365 366 367 366 368 368 368 365 364 361 360 359 356 356 354 352 348 348 348 348 348 345 345 344 341 339 339 339 340 341 340 341 340 332 329 330 332 341 343
337 341 340 344 347 349 350 351 355 355 356 357 358 361 362 362 362 362 360 362 362 362 363 363 364 365 367 367 368 368 366 363 361 359 358 357 356 355 354 352 348 347 348 348 346 345 345 344 342 340 339 338 338 338 339 340 333 326 327 328 327 331 340
338 341 343 346 348 348 349 350 354 356 356 357 358 360 361 363 361 361 362 363 364 365 364 364 363 366 367 368 367 368 366 363 361 359 359 357 356 355 354 352 348 346 345 345 345 344 343 341 340 337 337 338 339 339 339 339 331 326 325 326 325 326 332
339 340 343 345 348 349 351 352 353 355 357 359 361 361 363 364 362 364 364 365 366 365 364 364 365 366 366 367 367 367 366 363 360 359 358 356 354 352 351 349 347 346 345 345 344 343 341 339 336 334 335 337 339 339 338 339 332 324 323 323 323 325 329
341 343 345 347 349 349 351 353 354 357 357 357 358 361 362 361 362 364 363 364 364 365 364 364 366 365 366 365 366 366 365 363 360 357 357 353 351 350 349 348 348 345 344 342 340 340 339 336 335 333 335 336 336 336 336 337 327 322 321 320 320 323 328
339 342 343 346 349 350 351 350 353 354 356 358 358 359 361 359 358 358 362 364 364 364 365 365 365 364 365 364 365 365 364 362 358 356 355 351 350 349 347 346 345 343 342 339 337 338 337 337 336 336 336 336 336 334 334 334 325 321 320 319 319 322 336
336 340 342 346 346 348 354 355 355 357 359 358 356 355 354 355 356 359 362 362 362 364 364 363 362 362 364 362 364 363 362 361 358 355 354 351 349 347 345 343 341 340 340 336 334 333 332 331 330 333 333 334 336 335 337 338 329 319 319 318 318 323 339
336 339 341 344 348 352 355 353 352 358 354 355 353 356 357 357 356 360 361 360 361 362 361 361 360 362 363 361 362 361 360 358 354 353 353 351 348 346 345 343 341 339 338 335 333 331 331 331 331 332 335 336 338 336 337 337 329 316 316 316 316 326 339
338 340 344 347 349 349 348 351 354 354 354 356 358 359 361 360 361 360 359 359 361 360 359 358 360 360 361 360 361 360 357 354 353 353 352 351 349 347 346 345 342 339 336 335 334 333 334 333 333 334 337 338 337 336 336 336 331 315 316 314 314 326 340
341 342 343 346 347 351 356 357 356 355 357 357 359 361 362 362 358 357 358 360 358 356 357 358 360 362 361 360 359 358 355 353 351 352 352 351 349 348 347 345 343 339 336 334 334 334 334 335 335 335 337 339 338 338 337 337 340 339 313 313 312 318 339
347 347 346 347 351 352 355 354 354 354 357 358 359 359 359 358 358 358 359 358 356 356 357 360 360 359 359 358 356 355 353 352 351 350 350 350 348 346 345 343 341 338 336 335 336 336 335 335 338 338 339 340 341 341 341 342 341 347 312 311 311 315 327
346 348 351 351 351 351 352 355 359 358 358 359 358 358 359 360 358 358 357 357 357 358 359 359 358 358 357 355 353 352 351 351 351 350 349 350 349 345 342 341 341 339 338 338 338 338 338 339 339 340 340 342 343 345 345 345 340 347 317 312 310 314 320
347 347 348 350 352 353 353 354 354 353 353 352 354 357 357 358 357 356 357 357 356 356 357 357 356 356 354 352 351 350 350 350 349 348 347 347 346 344 340 339 339 340 340 340 339 338 338 339 340 341 342 344 346 347 346 346 344 326 328 309 309 310 316
348 348 347 348 350 351 351 351 350 348 349 350 354 356 357 358 356 355 356 354 355 355 355 355 354 353 351 350 349 348 348 347 347 347 347 346 344 343 342 340 339 341 341 340 338 337 337 338 339 340 339 342 341 341 341 343 342 324 320 314 310 309 311
344 344 345 345 346 349 348 348 349 349 349 351 353 355 356 356 356 356 353 353 355 354 354 353 352 351 349 349 347 347 346 346 346 347 346 344 343 342 341 340 340 339 340 340 338 337 337 339 341 341 341 340 339 337 339 340 341 332 319 315 309 309 308
347 347 347 348 349 348 348 348 348 349 349 351 352 353 355 358 358 355 352 353 353 354 354 352 351 349 348 347 346 345 345 345 344 344 344 343 342 342 342 341 339 338 339 338 337 338 339 341 340 339 339 340 341 338 337 336 335 333 326 317 313 312 308
349 349 349 349 350 350 350 350 348 348 348 348 351 351 352 356 355 353 353 352 352 352 353 352 350 348 347 346 346 345 344 344 341 341 342 343 341 342 342 341 340 339 337 338 337 336 337 340 340 340 338 339 339 338 335 334 335 335 333 332 329 326 318
347 347 349 352 352 351 350 349 349 348 348 348 349 350 351 351 351 351 351 349 349 351 351 349 348 346 346 345 345 343 344 343 340 340 340 340 340 339 339 339 340 338 337 337 336 337 337 338 338 338 338 337 338 337 333 331 332 334 334 333 333 331 328
347 348 348 349 352 352 351 351 351 350 348 348 350 350 351 349 347 348 349 348 350 351 350 347 345 346 344 343 342 341 342 342 341 341 340 340 331 322 318 319 333 339 338 342 341 343 339 339 338 338 339 337 337 333 332 333 332 333 324 337 322 333 331
344 345 346 348 349 351 351 352 352 350 349 348 350 349 348 347 347 348 346 348 349 350 349 347 345 344 342 342 341 341 339 340 339 340 339 338 331 324 316 304 297 303 328 337 313 303 299 306 335 330 336 337 336 334 333 332 334 311 305 302 299 294 295
342 342 343 345 345 346 347 348 349 349 349 348 348 347 347 347 347 347 346 348 349 350 349 348 345 342 340 339 338 338 339 339 339 340 340 339 336 333 328 323 316 296 293 300 302 299 294 297 297 300 307 328 332 316 305 307 303 300 298 297 295 295 295
342 343 342 343 345 346 346 347 347 346 345 346 346 346 347 346 347 347 347 348 349 349 349 348 344 342 340 340 339 339 340 340 340 340 338 336 336 336 334 330 328 322 298 293 296 296 293 293 295 297 301 303 312 321 321 303 296 295 295 295 295 295 293
Wind_Speed
17 18 18 17 17 18 19 19 19 18 18 17 17 19 18 17 17 15 15 16 17 16 16 16 16 14 16 14 15 13 13 12 11 11 11 11 10 10 10 9 9 9 8 7 7 8 8 8 9 8 7 7 7 6 6 5 5 4 4 3 3 2 3
15 16 18 18 19 19 20 20 19 18 17 17 17 19 17 18 17 16 16 16 17 17 16 16 16 16 15 15 13 14 14 14 13 10 10 10 10 9 10 10 9 8 8 7 7 7 8 9 9 8 7 7 7 6 6 6 5 5 5 4 4 4 4
15 16 17 17 18 17 19 19 19 18 18 17 18 18 18 18 18 19 17 16 17 17 16 17 17 16 15 14 14 15 15 14 13 13 12 11 12 12 10 9 9 8 9 9 8 8 9 9 9 8 8 7 7 7 7 7 6 6 5 4 5 5 5
14 16 17 18 18 18 20 20 21 20 18 19 19 20 19 19 18 17 16 17 17 17 18 17 17 17 15 15 15 14 15 14 14 13 13 12 12 11 9 9 9 9 9 10 9 8 8 8 9 9 9 7 7 6 7 7 7 7 5 5 5 5 5
14 15 15 16 17 15 16 17 18 19 20 20 19 19 19 19 18 16 16 17 18 19 19 19 15 15 13 14 12 12 13 15 14 13 12 12 11 11 11 12 11 11 9 9 9 8 8 8 9 8 8 7 7 7 7 7 6 4 4 5 5 4 4
14 15 15 16 17 17 18 19 21 21 21 21 20 19 18 19 17 19 19 18 17 18 17 17 17 16 15 15 13 12 12 13 13 13 12 12 12 11 12 12 11 10 10 10 10 9 10 9 9 9 10 9 7 6 7 7 6 6 5 5 5 5 5
12 15 15 16 16 17 18 18 19 19 20 19 19 18 18 18 19 19 18 19 19 19 19 19 18 17 15 14 14 14 14 14 14 15 13 14 14 13 12 11 11 12 11 10 11 11 11 10 9 10 11 10 9 9 8 8 7 6 6 6 7 7 7
11 12 14 15 15 16 16 16 17 17 16 16 17 17 19 17 17 18 18 17 18 19 18 19 18 16 15 14 13 15 15 16 14 14 13 14 14 13 12 12 12 11 11 12 11 10 11 11 11 11 9 8 9 10 9 8 8 8 7 8 8 8 6
10 12 13 14 15 14 14 15 15 16 18 18 19 17 18 17 17 17 18 18 17 18 19 19 18 16 14 13 14 16 15 14 14 14 15 15 13 14 13 12 11 11 12 11 10 11 11 13 13 12 12 11 11 10 10 10 9 8 8 8 9 9 8
8 10 11 12 12 12 13 14 14 14 16 16 16 16 17 16 16 16 16 17 17 19 20 19 16 16 15 14 15 16 15 15 14 16 16 16 14 15 15 14 13 13 13 13 12 12 11 12 13 11 12 13 12 11 10 10 10 9 8 8 9 9 9
7 9 9 11 13 13 13 14 16 15 16 15 15 15 15 15 16 16 16 16 17 17 18 17 15 15 15 16 17 16 15 16 16 16 17 17 15 17 17 16 15 13 14 14 13 14 13 12 12 12 13 12 12 11 11 10 10 9 9 8 8 9 9
7 8 9 11 12 13 15 14 13 14 15 14 15 15 15 15 15 16 15 17 17 16 15 16 15 16 15 15 16 15 17 17 16 17 18 17 16 17 17 16 15 15 15 16 15 14 14 13 12 12 13 13 12 12 10 9 9 9 10 10 9 9 9
7 8 10 12 13 11 11 13 16 16 16 15 16 16 15 15 16 15 15 16 17 15 14 14 14 14 15 14 15 15 16 16 16 16 16 15 14 14 16 17 16 16 15 15 16 16 15 14 14 12 11 12 12 11 11 11 9 7 7 8 9 9 8
8 9 10 11 12 14 16 16 15 16 16 16 16 15 14 15 15 15 15 16 15 15 13 11 13 14 14 13 13 13 14 15 14 14 13 12 13 14 15 15 14 14 13 13 16 17 18 17 16 13 11 11 11 12 11 10 8 8 8 8 9 10 10
10 11 12 14 15 14 14 16 16 17 17 16 17 17 17 15 15 14 13 13 13 13 13 12 12 13 13 12 12 12 12 12 12 11 12 13 12 13 14 14 11 9 9 12 13 14 16 16 14 11 10 10 11 11 10 9 8 6 7 9 10 10 10
10 11 13 15 16 16 16 16 15 16 17 17 18 17 17 15 15 16 15 14 13 13 12 12 12 12 12 13 13 11 11 12 11 12 13 13 14 14 13 11 12 12 11 11 13 12 12 12 12 13 12 11 10 9 8 8 6 7 9 9 8 9 8
11 12 14 14 14 15 15 15 15 16 17 18 18 18 17 15 15 14 15 13 13 13 13 12 11 11 12 12 11 11 11 12 12 13 13 13 14 15 14 13 13 14 15 14 12 13 12 11 13 12 11 10 9 9 8 7 6 11 13 12 10 7 8
12 13 14 14 15 15 15 17 17 18 19 19 19 18 16 15 14 14 14 13 13 13 12 12 12 11 11 11 10 10 12 12 12 12 13 14 15 15 15 14 16 16 15 12 12 11 11 10 7 8 10 10 11 11 8 7 8 10 12 12 12 10 9
12 12 13 14 15 16 18 19 19 19 18 18 17 17 16 15 14 14 14 13 12 11 11 12 12 11 11 10 10 10 11 12 12 12 12 13 14 14 14 14 15 15 13 13 12 12 11 12 11 11 10 9 9 9 9 8 10 14 14 12 13 13 11
10 10 11 12 13 14 14 13 13 15 17 16 16 16 15 14 13 12 12 11 11 12 11 11 11 11 10 10 10 10 11 12 11 11 11 10 11 12 13 13 16 15 12 10 11 10 11 11 12 11 10 9 9 8 8 8 9 14 14 13 13 13 11
9 10 10 11 13 14 15 15 14 15 15 15 14 13 13 13 12 11 11 11 11 11 11 11 10 10 9 10 10 10 10 11 10 10 10 10 11 13 14 15 13 13 11 9 13 13 10 10 11 11 11 10 9 8 8 8 11 14 15 14 14 13 10
11 11 11 11 11 12 14 15 15 15 15 13 13 13 12 12 12 12 11 11 11 11 10 10 10 9 9 9 9 9 9 9 10 10 9 11 12 12 14 14 13 13 11 11 11 9 8 8 9 10 9 9 9 10 11 12 16 15 15 14 13 11 7
10 12 12 12 14 14 13 13 12 12 13 13 14 13 13 12 12 11 11 11 10 10 9 9 9 9 9 9 8 9 9 9 10 9 10 11 11 12 13 13 13 13 11 12 9 9 9 9 8 6 8 9 10 12 12 12 12 15 15 14 13 10 8
8 10 12 13 12 12 14 14 14 13 13 13 13 12 12 12 12 11 10 10 9 9 9 9 9 8 8 8 8 8 8 8 9 8 9 9 11 13 12 12 12 12 12 12 11 11 11 10 9 9 10 11 14 15 14 14 12 15 14 14 14 13 10
9 10 12 13 14 15 15 14 15 15 14 14 14 13 13 13 13 11 10 10 9 9 10 9 8 8 8 8 8 8 8 7 8 8 9 10 10 11 11 11 12 13 11 9 9 9 9 9 9 10 11 14 16 13 14 12 8 13 15 14 15 13 9
11 12 12 13 13 13 13 15 17 16 15 14 13 13 14 13 11 11 10 10 10 10 9 8 8 7 7 8 8 8 8 6 7 8 8 9 9 9 9 8 10 12 12 11 9 9 10 10 10 13 13 13 13 12 13 11 9 10 14 14 14 14 9
9 10 13 14 14 14 13 13 14 15 15 13 13 13 12 12 12 11 10 10 10 10 10 9 9 9 8 8 8 8 8 7 8 8 8 7 8 10 8 9 11 11 10 11 11 11 10 11 12 12 11 10 10 10 10 8 8 8 15 13 12 13 11
11 11 12 13 13 11 12 12 13 14 13 11 12 12 11 12 12 11 11 10 11 11 10 10 10 9 9 9 8 7 8 7 7 7 6 6 7 9 9 10 11 11 11 10 10 11 11 11 10 9 9 9 8 7 6 5 3 4 10 11 12 14 12
13 14 15 15 13 12 12 13 13 13 13 12 12 10 10 12 12 11 10 11 11 10 10 9 9 10 10 9 8 7 7 7 8 7 6 6 6 9 10 9 10 11 10 9 9 10 10 10 9 9 8 6 5 5 6 5 2 4 7 10 12 12 10
14 15 15 15 15 15 15 13 13 12 11 10 9 9 9 10 10 11 11 12 9 9 9 10 10 10 9 9 8 8 7 7 7 7 6 6 7 9 9 9 9 8 8 8 8 9 10 9 9 8 7 7 5 4 4 3 3 6 9 9 11 12 11
15 15 15 15 15 14 13 13 13 12 11 9 9 8 8 8 10 13 13 10 9 9 9 9 9 9 9 8 7 7 7 7 6 7 6 6 7 8 9 10 9 9 9 9 9 9 9 8 8 7 5 4 5 6 5 6 6 5 8 11 8 9 8
15 14 14 14 12 12 13 13 14 14 13 10 8 8 8 8 9 12 11 10 9 9 9 9 9 9 8 7 7 7 6 7 6 6 6 7 7 8 9 10 9 9 9 8 9 9 9 8 7 6 6 5 5 5 4 4 4 5 7 8 8 6 5
15 14 13 13 10 10 10 11 12 13 13 12 9 8 8 9 10 10 10 10 9 9 9 9 9 8 7 7 7 7 6 6 6 7 6 7 7 7 7 7 9 8 8 8 9 10 9 7 6 6 4 4 5 6 5 5 5 5 6 7 8 8 8
14 13 12 12 10 11 11 11 11 11 11 10 9 8 8 8 9 9 9 9 9 10 9 9 8 7 7 7 6 6 6 6 6 6 6 6 6 6 7 8 8 7 7 8 8 7 6 6 6 5 4 4 4 6 6 6 7 7 8 7 6 7 7
13 13 12 12 11 11 10 10 10 10 10 9 8 8 8 8 8 9 9 8 9 9 9 8 9 8 8 7 6 6 6 5 7 6 5 6 6 7 7 5 2 1 5 4 3 1 3 5 5 5 4 4 5 7 8 8 9 9 1 5 5 4 8
13 13 12 11 10 11 11 10 10 10 9 7 6 7 7 8 7 7 8 8 8 8 8 9 8 7 8 7 6 7 7 6 7 7 7 7 6 6 5 7 8 7 3 2 7 8 7 5 2 2 1 2 4 2 6 8 5 12 12 11 11 10 11
12 11 11 11 11 11 11 10 9 9 9 7 6 6 6 7 6 6 7 6 7 7 8 8 7 6 6 7 7 8 7 6 6 7 5 6 6 6 6 5 6 11 11 8 6 6 7 6 4 4 5 4 2 7 13 13 14 13 12 12 11 11 11
12 11 10 10 9 9 9 9 8 8 7 5 5 6 5 6 6 5 6 5 5 5 6 6 6 5 6 6 5 9 7 6 7 7 7 6 5 7 6 5 5 3 9 8 7 8 8 8 8 8 9 11 7 4 5 7 10 12 12 11 11 11 11
Wind_Direction
199 196 197 195 192 192 192 192 192 192 192 190 189 189 190 191 193 191 192 192 194 196 196 196 198 199 203 203 203 203 204 205 206 208 211 219 224 221 216 215 212 211 215 218 214 210 198 192 192 196 198 201 206 199 202 202 202 203 213 214 221 233 238
203 199 195 195 196 195 191 188 189 191 191 191 190 189 190 190 189 193 194 193 193 195 195 196 198 202 202 202 201 203 204 205 204 204 209 214 214 215 208 212 206 203 205 209 204 194 189 191 192 195 199 202 207 202 201 204 208 212 219 210 221 225 224
202 200 198 195 197 197 193 189 188 190 190 189 190 190 192 189 189 192 191 191 192 193 195 197 198 201 201 201 202 202 203 202 201 200 202 206 206 204 197 204 200 203 203 201 198 190 189 190 191 194 200 201 203 201 200 198 202 211 222 225 223 220 227
202 200 199 197 198 197 194 190 188 189 190 190 190 191 190 190 190 191 190 191 190 192 197 199 199 201 199 198 201 202 202 201 200 199 200 199 196 192 192 194 197 203 201 200 196 192 190 191 190 194 199 200 199 201 204 201 197 200 214 222 230 229 233
201 197 198 200 199 196 196 195 191 190 191 192 190 188 188 190 189 189 191 193 192 193 196 198 199 200 200 199 199 201 199 198 199 200 199 198 193 189 192 198 196 199 198 195 190 189 187 186 189 191 192 202 200 198 201 201 201 195 201 209 225 232 229
196 195 198 197 198 196 195 195 194 191 190 190 189 189 190 189 190 193 194 192 195 197 197 197 199 198 199 199 199 196 194 194 195 194 195 192 189 191 195 198 195 188 190 190 184 183 179 184 189 190 197 193 198 193 196 195 206 201 199 200 216 225 225
196 195 195 197 197 197 196 196 195 194 192 190 188 187 190 190 192 195 193 194 194 195 197 200 201 199 199 197 198 193 190 191 192 193 191 191 190 193 195 191 185 187 190 179 184 181 180 182 186 197 201 190 176 185 193 191 195 202 187 201 216 218 222
199 195 196 196 198 197 196 194 193 192 190 190 189 188 191 193 193 194 195 196 197 199 201 203 203 201 199 197 194 194 194 193 190 189 191 192 190 195 187 187 187 182 178 182 182 174 176 179 185 200 196 187 189 187 184 180 180 198 197 203 214 219 216
201 198 194 197 198 198 197 192 190 188 187 189 191 190 189 190 193 194 195 196 197 200 204 206 204 200 198 194 193 193 193 191 190 189 191 191 191 188 187 194 185 178 178 183 175 171 178 182 190 193 186 195 203 189 177 170 178 190 208 211 210 215 216
191 191 198 200 199 197 193 188 184 181 185 188 189 188 188 190 191 192 194 198 199 203 205 205 203 200 195 194 194 191 190 191 191 191 193 195 192 187 192 194 183 179 183 181 175 176 181 189 188 189 190 203 204 193 185 179 176 183 204 217 216 213 214
183 185 188 197 197 193 187 183 181 181 182 183 184 186 187 188 190 191 195 199 203 205 205 203 202 200 196 196 195 192 190 190 191 193 196 198 195 191 192 194 189 180 182 182 183 183 185 188 188 186 194 203 205 200 191 188 183 183 193 207 219 220 217
165 178 184 190 192 191 191 185 177 176 178 178 181 183 183 185 188 192 194 201 204 205 203 201 201 201 197 197 196 193 192 192 194 197 199 198 196 190 189 192 189 180 181 181 180 181 185 185 188 190 198 201 202 200 197 191 190 187 190 207 216 220 222
175 177 178 186 187 188 183 180 182 180 176 176 179 180 182 184 188 192 194 200 204 205 202 199 199 198 200 199 197 194 194 194 197 198 200 197 193 190 189 195 189 182 181 181 184 185 189 188 190 194 198 196 191 190 196 197 193 188 192 209 217 222 224
177 176 179 179 186 188 189 186 182 179 178 177 179 180 182 185 188 190 193 197 201 202 200 196 196 197 201 201 201 197 195 198 198 200 199 195 191 194 195 191 184 178 175 182 187 190 190 188 190 191 193 192 185 188 190 187 181 187 194 203 219 225 228
194 192 181 183 186 192 196 189 185 181 178 179 178 180 182 184 189 192 195 197 198 200 199 194 193 198 199 201 202 201 195 195 201 200 209 206 194 193 190 183 152 133 169 190 194 195 192 190 185 182 185 188 189 185 182 180 185 189 201 209 217 225 233
213 204 194 190 189 189 197 197 186 180 177 178 180 181 184 186 189 191 192 193 194 195 195 192 194 196 199 201 203 201 201 205 196 208 210 206 198 194 189 153 131 166 196 193 193 189 184 183 183 190 187 187 188 183 178 183 183 193 215 230 224 223 226
221 217 209 199 190 188 190 195 187 179 179 180 181 182 184 185 186 187 190 189 189 191 192 191 193 195 201 204 201 206 204 213 208 207 200 202 204 200 184 153 155 187 205 197 193 185 186 188 188 192 186 177 186 191 190 186 183 187 203 209 226 237 241
226 217 213 202 193 186 185 190 186 181 181 180 181 181 181 180 180 180 187 185 188 188 186 192 193 197 201 204 201 199 207 212 207 205 206 203 203 204 196 169 174 194 207 194 181 185 183 178 169 164 161 183 202 204 197 191 182 197 204 202 210 217 235
232 222 213 200 189 186 188 189 187 183 179 179 181 181 182 176 177 181 182 181 182 181 184 189 194 196 201 201 200 195 199 212 209 205 204 207 206 204 192 178 181 193 204 209 195 182 183 179 181 180 182 192 201 207 204 207 179 203 209 202 206 211 222
241 236 221 208 199 190 187 187 183 182 179 179 180 180 176 177 177 176 175 173 171 179 183 185 191 196 199 198 197 196 192 199 202 205 201 198 203 198 190 180 187 191 197 198 201 191 174 171 177 181 194 204 207 213 223 224 194 202 203 204 208 213 210
221 223 215 205 194 186 182 182 180 174 173 179 178 169 167 171 168 163 168 171 173 177 180 185 187 192 195 195 194 192 192 194 194 208 191 178 191 198 201 201 188 187 187 193 205 192 177 173 177 185 196 205 212 211 217 222 215 198 197 200 206 211 208
210 205 202 196 191 185 177 179 179 172 167 163 162 163 164 167 172 172 169 171 173 174 179 180 186 188 192 193 190 188 186 186 192 204 176 181 199 199 204 205 193 186 185 194 196 190 179 179 186 190 193 203 211 218 223 224 207 196 193 199 204 195 208
213 200 194 184 181 178 170 166 162 162 159 159 161 163 172 168 167 164 162 167 171 171 174 178 182 187 186 188 181 180 180 186 192 194 178 187 193 198 202 204 199 195 193 194 181 181 187 189 198 199 207 211 212 225 231 233 199 189 193 199 194 179 216
212 193 188 182 176 165 162 158 158 155 160 160 162 157 155 157 156 152 154 158 161 165 168 174 178 180 179 179 174 173 175 189 207 192 181 183 193 200 205 201 199 193 192 188 177 183 191 192 195 208 213 214 220 223 230 236 207 182 195 199 180 189 209
181 171 164 163 163 163 164 156 152 149 152 149 143 140 141 143 143 144 147 152 158 163 163 167 167 171 171 169 165 166 170 191 199 199 188 189 196 197 205 198 193 191 188 179 172 176 185 188 200 213 220 225 229 225 230 234 212 183 195 190 182 192 213
164 160 157 156 155 149 141 134 133 138 143 141 135 135 136 138 142 142 144 147 157 157 151 153 156 157 157 154 155 163 170 185 193 199 198 188 189 193 197 189 191 188 188 186 185 191 199 199 206 216 225 230 231 224 222 227 235 177 185 186 183 190 209
143 146 142 142 134 135 134 136 137 140 138 133 135 133 134 136 137 138 141 146 150 142 142 144 144 144 142 145 153 163 168 174 186 193 193 189 182 189 193 195 192 184 178 187 192 200 204 206 215 219 222 224 220 222 218 224 243 168 180 181 178 184 209
135 125 114 109 119 133 133 127 119 116 112 119 124 126 131 134 131 133 140 145 137 135 133 135 138 137 137 141 151 166 169 178 176 182 184 181 172 159 189 199 199 195 191 193 191 195 198 203 211 215 214 214 216 224 228 231 222 219 166 161 159 180 195
120 118 116 118 116 113 112 106 105 104 110 116 116 122 129 130 130 135 139 128 125 126 131 132 132 135 138 144 149 161 169 167 165 171 181 177 168 172 186 187 192 193 198 201 196 197 205 210 201 201 201 201 204 214 229 229 134 57 119 137 163 176 182
100 102 106 103 101 100 93 91 95 98 98 99 104 113 120 126 126 127 122 119 124 125 126 130 134 136 137 142 148 159 161 164 169 172 174 159 172 188 188 184 190 187 187 191 201 202 202 198 196 198 200 207 194 203 220 214 197 81 111 146 168 180 173
88 88 89 90 92 95 99 103 102 101 98 98 103 102 107 114 119 119 116 119 125 126 130 133 136 136 134 141 146 153 157 157 165 172 171 171 186 189 189 188 187 187 183 192 198 199 196 191 188 195 181 187 162 192 212 214 194 151 125 146 161 178 181
82 84 89 95 98 103 110 112 111 109 107 103 103 106 104 107 113 112 114 121 123 128 131 133 131 131 132 132 140 148 153 160 157 168 175 180 192 196 193 186 188 191 189 196 199 196 188 186 184 180 180 185 188 179 190 215 213 175 144 148 149 161 164
76 74 74 74 81 96 101 110 112 113 113 109 108 103 101 96 97 105 115 121 130 129 129 126 127 126 128 135 141 143 156 154 166 178 186 194 192 193 197 192 193 194 201 201 199 193 191 180 180 182 188 181 183 172 169 190 209 210 188 164 169 165 154
82 79 74 74 72 78 82 79 81 89 92 93 92 89 91 95 103 116 125 130 128 126 127 127 128 129 133 136 135 141 153 164 155 182 178 187 194 196 194 197 201 199 205 209 199 197 185 189 190 199 203 216 172 163 173 189 205 213 199 178 178 172 166
78 76 75 69 64 65 75 82 80 79 82 86 89 93 96 101 111 117 120 121 120 128 127 126 133 131 130 133 136 138 157 173 165 184 175 165 81 57 44 20 360 318 214 41 351 289 206 198 196 208 221 229 158 172 188 193 203 205 162 146 160 179 184
76 77 76 76 78 77 76 75 83 88 88 88 91 97 104 103 106 120 124 119 125 131 128 133 136 136 134 140 144 152 163 179 172 180 187 152 120 112 82 58 58 30 10 98 37 41 36 27 25 357 27 233 148 122 202 215 197 113 107 113 100 79 68
79 82 81 82 82 76 74 73 74 80 83 87 93 99 100 101 104 105 106 114 120 128 127 134 137 142 144 153 171 153 165 173 167 168 162 142 146 159 135 144 75 51 43 35 27 23 22 57 45 23 20 34 101 78 59 83 99 114 112 106 96 87 83
63 69 77 79 78 79 82 83 83 84 85 84 85 85 93 101 106 106 110 113 113 123 129 138 147 151 148 160 130 117 161 168 156 151 152 159 173 173 173 159 154 108 48 42 50 52 47 46 41 38 41 57 45 86 99 63 93 110 111 108 103 98 92